COSMOS 1275 DEB, 12726

Orbit data source: Space-Track

COSMOS 1275 DEB, 12726 is space debris in LEO originally from a launch on Thu, 04 Jun 1981 UTC launched from the Plesetsk Missile And Space Complex (PKMTR). Debris objects in space refer to the collection of defunct objects orbiting the Earth. Examples of debris include non-operational satellites, rocket bodies, and fragments generated from explosions, collisions, or faulty payload assembly.

Loading next visibility...
Identifier
12726, 1981-053BT
Orbit
LEO
Country
Flag of CISCIS
Related business
Manufacturer
Unknown
Mission
Spacecraft
Bus & Motor
Unknown
Mass
Unknown
Launch date (UTC)
1981-06-04 (44 years ago)
Launch vehicle
Unknown
Launch site
Plesetsk Missile And Space Complex (PKMTR)
Object type
Payload
Rocket body
Debris
Shape & HBR
Unknown shape, 0.3 m
Radar Cross Section
Medium (>0.1 m² and <1 m²)

Expand to show TLE details & history
Last TLE update: 14 hours ago

TLE from 14 hours ago
0 COSMOS 1275 DEB
1 12726U 81053BT  25308.53978088  .00001367  00000-0  85275-3 0  9998
2 12726  82.9441 135.8820 0040096  56.2452 327.7369 14.03741076243445
Epoch: 2025-11-04T12:57Z
TLE epoch observation values (Epoch: 2025-11-04T12:57:17.068Z)
Latitude
23.56664°
Longitude
-99.38589°
Altitude
859.167 km
Speed
7.438 km/s
True Right ascension
09h 15m 50s
True Declination
23° 26' 33"
Sunlit
Object was in daylight at epoch
Visualization orbit readout
Latitude
Unknown
Longitude
Unknown
Altitude
Unknown
Speed
Unknown
Apparent Right ascension
Unknown
Apparent Declination
Unknown
Sunlit
N/A
Visualization observer readout
Local Sidereal Time
22:53:22
Azimuth
Unknown
Elevation
Unknown
Doppler factor
Unknown
Orbital elements
Apogee altitude
907.072 km
Perigee altitude
848.884 km
Semi-major axis
7,256.115 km
Eccentricity
0.00401
Inclination
82.9441°
RAAN
135.882°
Arg. of periapsis
56.2452°
True anomaly
327.49059°
Mean anomaly
327.7369°
Eccentric anomaly
327.61385°
Mean motion
3.51145 °/min
Orbital period
102.52 mins
BSTAR
0.00085275
Loading maneuver chart data...
Computing Atmospheric mass density...
Loading historical data...
Loading historical data...
Loading historical data...
Loading historical data...
Loading historical data...
Loading historical data...
Loading historical data...

Documentation

Showing up to 5 results
|